Llagostera





Hora UTC 06:35
Temperatura -1.1 ºC
Humitat 94.0 %
Pressió 1017.4 hPa
Pluja 0.2 mm
Velocitat vent 0.0 km/h
Direcció vent

Dades diàries 2022-12-01



Hora UTC (hivern +1h; estiu +2h)
Temperatura (ºC) Humitat (%) Pressió (hPa) Velocitat vent (km/h) Precipitació (mm)
Hora UTC Aire Humitat Pressió Vel. Dir. Vel. Max Dir. Intent. màx 5 min.
00:05 3.7 94.0 1017.5 3.2 3.2 0.0
00:15 4.2 94.0 1017.4 4.8 8.0 0.0
00:25 4.3 94.0 1017.4 4.8 8.0 0.0
00:35 4.1 93.0 1017.3 3.2 8.0 0.0
00:45 3.9 93.0 1017.2 0.0 8.0 0.0
00:55 3.8 93.0 1017.2 0.0 8.0 0.0
01:05 3.5 93.0 1017.2 0.0 8.0 0.0
01:15 3.1 93.0 1017.1 0.0 8.0 0.0
01:25 2.9 93.0 1017.2 0.0 8.0 0.0
01:35 2.6 93.0 1017.3 0.0 8.0 0.0
01:45 2.1 93.0 1017.3 0.0 8.0 0.0
01:55 1.8 93.0 1017.3 1.6 8.0 0.0
02:05 1.7 93.0 1017.3 4.8 8.0 0.0
02:15 1.5 93.0 1017.3 0.0 8.0 0.0
02:25 1.2 93.0 1017.2 0.0 8.0 0.0
02:35 1.2 94.0 1017.2 0.0 8.0 0.0
02:45 1.3 94.0 1017.2 0.0 8.0 0.0
02:55 1.3 94.0 1017.1 0.0 8.0 0.0
03:05 1.0 94.0 1017.0 0.0 8.0 0.0
03:15 0.8 94.0 1017.0 0.0 8.0 0.0
03:25 0.8 94.0 1017.0 3.2 8.0 0.0
03:35 0.7 94.0 1016.9 4.8 8.0 0.0
03:45 0.7 94.0 1017.0 4.8 8.0 0.0
03:55 0.7 94.0 1016.8 0.0 8.0 0.0
04:05 0.6 94.0 1016.9 0.0 8.0 0.0
04:25 0.2 94.0 1016.9 3.2 8.0 0.0
04:35 0.2 94.0 1017.0 3.2 8.0 0.0
04:45 0.2 94.0 1016.9 4.8 8.0 0.0
04:55 0.1 94.0 1017.0 4.8 8.0 0.2
05:05 0.1 94.0 1016.9 3.2 8.0 0.0
05:15 0.1 94.0 1017.0 1.6 8.0 0.0
05:25 -0.1 94.0 1017.0 0.0 8.0 0.0
05:35 -0.2 94.0 1016.9 0.0 8.0 0.0
05:45 -0.3 94.0 1017.0 0.0 8.0 0.0
05:55 -0.4 94.0 1017.1 0.0 8.0 0.0
06:05 -0.6 94.0 1017.1 0.0 8.0 0.0
06:15 -0.8 94.0 1017.2 0.0 8.0 0.0
06:25 -1.0 94.0 1017.3 0.0 8.0 0.0
06:35 -1.1 94.0 1017.4 0.0 8.0 0.0
Màxima 4.7 94.0 1017.5 4.8 8.0 0.2
Mínima -1.1 93.0 1016.8
Total 0.2